Tracking 23611 objects as of 18-Sep-2021
HD Live streaming from Space Station
objects crossing your sky now
Track INSPIRATION-4

STARLINK-1878

Track STARLINK-1878 now!
10-day predictions
STARLINK-1878 is classified as:


NORAD ID: 47163
Int'l Code: 2020-088AT
Perigee: 553.3 km
Apogee: 555.4 km
Inclination: 53.1 °
Period: 95.6 minutes
Semi major axis: 6925 km
RCS: Unknown
Launch date: November 25, 2020
Source: United States (US)
Launch site: AIR FORCE EASTERN TEST RANGE (AFETR)
aabbcc
Your satellite tracking list
Your tracking list is empty




NASA's NSSDC Master Catalog

Two Line Element Set (TLE):
1 47163U 20088AT  21261.20861743  .00001128  00000-0  94614-4 0  9992
2 47163  53.0547  84.7297 0001544  97.7046 262.4119 15.06402315 45495
Source of the keplerian elements: AFSPC